This is the latest recevied weather packets stored in our database for station/object KB2SKP. If no packets are shown the sender has not sent any weather packets the latest 10 day(s).
| Time | Temp. | Humidity | Pressure | Rain* | Wind** | Luminosity | Snow |
|---|---|---|---|---|---|---|---|
| 1777503330 | 15° C | 73% | 1004.8 hPa | 0 mm | - | 4 W/m² | - |
| 1777503026 | 15° C | 72% | 1004.7 hPa | 0 mm | - | 6 W/m² | - |
| 1777502724 | 15.56° C | 72% | 1004.9 hPa | 0 mm | - | 6 W/m² | - |
| 1777502420 | 15.56° C | 70% | 1005.2 hPa | 0 mm | - | 6 W/m² | - |
| 1777502117 | 15.56° C | 69% | 1004.8 hPa | 0 mm | - | 13 W/m² | - |
| 1777501815 | 15.56° C | 68% | 1005.1 hPa | 0 mm | - | 25 W/m² | - |
| 1777501512 | 15.56° C | 68% | 1005.2 hPa | 0 mm | - | 13 W/m² | - |
| 1777501209 | 16.11° C | 68% | 1004.9 hPa | 0 mm | - | 16 W/m² | - |
| 1777500907 | 16.11° C | 68% | 1005.1 hPa | 0 mm | - | 9 W/m² | - |
| 1777500604 | 16.11° C | 69% | 1005.5 hPa | 0 mm | - | 7 W/m² | - |
| 1777500300 | 16.11° C | 69% | 1005.4 hPa | 0 mm | - | 9 W/m² | - |
| 1777499997 | 16.11° C | 69% | 1005.5 hPa | 0 mm | - | 15 W/m² | - |
| 1777499693 | 16.11° C | 70% | 1005.2 hPa | 0 mm | - | 30 W/m² | - |
| 1777499390 | 16.67° C | 70% | 1005.4 hPa | 0 mm | - | 32 W/m² | - |
| 1777499089 | 16.67° C | 70% | 1005.5 hPa | 0 mm | - | 33 W/m² | - |
| 1777498785 | 16.67° C | 70% | 1005.7 hPa | 0 mm | - | 27 W/m² | - |
| 1777498481 | 16.67° C | 70% | 1005.5 hPa | 0 mm | - | 28 W/m² | - |
| 1777498177 | 16.67° C | 70% | 1005.5 hPa | 0 mm | - | 36 W/m² | - |
| 1777497875 | 16.67° C | 70% | 1005.3 hPa | 0 mm | - | 49 W/m² | - |
| 1777497571 | 17.22° C | 70% | 1005.5 hPa | 0 mm | - | 26 W/m² | - |
| 1777497267 | 17.22° C | 69% | 1005.4 hPa | 0 mm | - | 51 W/m² | - |
| 1777496964 | 17.22° C | 68% | 1005.3 hPa | 0 mm | - | 47 W/m² | - |
| 1777496661 | 17.22° C | 68% | 1005.5 hPa | 0 mm | - | 54 W/m² | - |
| 1777496358 | 17.22° C | 68% | 1005.5 hPa | 0 mm | - | 58 W/m² | - |
| 1777496054 | 17.22° C | 68% | 1005.8 hPa | 0 mm | - | 27 W/m² | - |
* Rain latest hour (hover to see other rain measurements)
** Current wind speed in m/s (hover to see current wind gust speed)